Wind_Speed
32 21 21 21 25 20 18 18 16 14 16 15 14 11 8 6 11 7 11 12 15 16 22 24 26 31 26 27 27 25 25 19
20 20 19 22 26 25 22 22 21 21 20 19 18 17 16 15 17 18 16 21 17 18 24 27 25 23 25 36 37 30 27 27
20 16 15 13 20 25 24 23 23 27 27 27 28 26 24 20 13 17 24 30 26 24 29 27 28 29 28 32 39 35 35 36
21 21 19 15 15 25 27 27 26 26 28 28 30 29 25 19 23 30 34 37 32 31 31 29 29 30 31 32 34 40 41 45
19 23 21 18 20 22 22 24 25 25 27 25 22 23 26 25 28 28 30 39 32 28 28 30 32 32 33 36 43 47 49 45
14 12 15 14 13 17 18 23 28 29 24 24 24 26 28 28 27 29 33 32 27 26 26 24 27 30 34 36 51 53 41 26
16 16 16 20 23 22 22 19 17 21 27 26 27 30 32 35 33 32 32 24 21 19 19 16 19 23 20 18 25 8 11 20
16 15 19 19 19 21 26 23 22 23 26 32 33 34 37 40 37 33 27 18 15 17 11 15 19 20 24 21 20 21 23 26
19 23 20 23 25 24 17 18 22 24 25 28 29 27 28 33 28 27 21 17 18 17 17 22 26 23 25 27 30 30 30 30
26 27 26 25 24 17 15 15 15 17 21 22 25 29 30 28 25 26 22 19 20 20 20 21 25 27 29 31 32 34 33 34
29 30 30 26 21 15 17 21 23 25 23 23 23 27 29 31 28 23 21 21 23 24 24 26 28 30 31 32 34 35 35 33
29 32 33 23 22 22 26 24 24 24 25 26 26 26 29 29 27 23 22 25 26 28 30 30 31 31 30 30 32 31 29 26
31 28 28 21 19 18 18 20 24 24 26 28 29 29 30 31 29 26 25 27 28 29 30 30 30 30 31 28 25 26 30 32
28 28 28 23 19 19 19 19 21 23 25 27 30 31 31 29 27 26 26 27 28 28 29 30 29 28 28 29 31 31 32 33
25 16 14 17 19 17 20 22 24 26 27 28 29 28 27 25 27 28 29 29 29 28 26 25 25 26 28 31 33 34 35 36
18 24 21 22 24 23 23 26 28 30 30 30 29 30 31 31 31 30 29 29 29 28 28 29 29 30 31 31 33 34 35 36
17 22 24 26 26 27 28 28 30 31 31 31 33 34 34 32 31 29 28 29 29 29 29 29 30 32 33 34 36 36 36 37
28 28 28 27 29 32 32 33 34 33 32 33 35 37 35 30 29 30 31 31 31 31 31 31 32 33 34 35 35 35 36 37
28 27 29 32 35 35 34 35 35 35 35 34 34 34 32 30 30 32 33 34 34 33 32 33 34 35 36 37 36 37 38 38
Wind_Direction
207 225 229 248 215 226 237 239 243 248 259 266 275 273 281 334 342 342 339 296 298 313 318 325 300 305 266 266 262 261 256 240
222 227 224 235 231 225 236 248 256 250 265 274 278 289 295 300 300 317 319 320 324 326 331 322 317 294 277 275 258 264 261 258
211 221 229 243 227 218 237 243 260 259 265 275 280 283 293 306 320 315 315 312 310 308 320 312 316 310 290 288 250 248 257 255
213 218 214 229 229 227 242 255 263 267 275 279 284 293 304 302 305 309 316 317 310 305 309 308 300 302 289 270 259 247 252 257
218 226 232 228 240 247 254 262 271 271 283 289 299 304 298 302 301 313 317 318 313 307 305 302 295 294 295 279 252 246 245 258
237 259 260 281 271 249 270 281 268 272 285 291 298 303 309 308 307 304 310 315 301 300 297 296 292 291 309 275 271 257 248 279
238 260 282 276 267 264 270 282 282 281 282 288 291 294 293 303 301 303 310 305 296 291 293 292 292 300 314 345 357 356 289 297
238 265 271 275 281 274 283 275 283 300 284 282 285 286 291 299 297 303 308 299 290 294 279 301 322 317 330 331 327 314 302 303
247 277 274 287 302 295 287 277 274 280 283 279 281 292 290 298 298 301 306 297 291 286 289 292 309 304 298 297 298 299 298 296
251 267 276 289 286 286 279 269 278 289 295 294 291 290 290 290 292 295 290 289 286 287 286 279 282 285 282 284 288 289 290 288
267 273 279 285 277 260 259 266 276 282 284 284 284 282 282 283 284 285 289 289 287 286 285 287 287 286 285 287 289 293 295 300
267 280 269 271 263 261 259 265 271 271 273 277 275 279 280 284 288 290 285 283 281 285 288 289 290 290 288 289 292 291 290 285
280 267 260 254 263 266 277 274 271 271 272 276 280 280 281 283 286 290 287 287 294 298 300 299 297 293 290 289 288 288 290 291
285 264 236 238 260 268 274 272 278 277 278 279 281 282 283 287 288 289 290 294 295 294 295 294 293 293 294 297 299 299 297 296
257 245 227 243 268 278 287 289 288 287 288 288 288 289 289 288 289 292 297 300 301 300 294 288 286 288 293 296 298 303 303 301
249 240 242 257 275 285 291 290 290 291 293 292 291 289 291 292 294 297 297 296 295 292 287 288 290 293 296 297 299 299 298 297
245 251 252 265 279 286 290 289 286 288 290 290 288 286 287 291 293 290 289 290 292 293 290 290 293 298 301 302 302 300 298 298
247 249 260 273 282 287 289 287 286 287 289 288 288 288 291 291 290 292 296 299 297 295 293 293 296 298 297 297 297 296 296 298
261 271 277 281 284 285 282 284 286 288 288 287 286 288 289 291 294 296 297 298 297 295 295 296 297 298 300 299 299 298 299 300
Height
5892 5893 5895 5896 5898 5902 5901 5902 5902 5903 5903 5905 5905 5907 5907 5906 5904 5901 5896 5894 5893 5893 5891 5892 5887 5888 5890 5889 5887 5890 5887 5889
5889 5891 5892 5894 5897 5898 5898 5899 5899 5899 5900 5901 5901 5902 5904 5904 5901 5896 5891 5890 5889 5889 5889 5884 5884 5883 5886 5883 5881 5884 5886 5888
5886 5888 5889 5890 5891 5895 5895 5896 5896 5896 5897 5897 5896 5897 5899 5899 5897 5892 5887 5885 5884 5884 5884 5878 5878 5875 5875 5874 5873 5873 5877 5879
5884 5885 5886 5888 5890 5892 5892 5893 5892 5892 5892 5892 5892 5892 5893 5893 5891 5888 5882 5877 5875 5875 5875 5873 5872 5870 5867 5865 5865 5866 5869 5868
5882 5884 5885 5886 5887 5888 5888 5889 5888 5888 5888 5888 5888 5888 5887 5886 5884 5882 5878 5873 5869 5869 5868 5865 5863 5862 5857 5854 5854 5854 5857 5862
5880 5882 5882 5882 5883 5884 5885 5884 5884 5884 5885 5885 5884 5884 5882 5880 5879 5877 5874 5870 5866 5864 5863 5861 5858 5853 5848 5842 5841 5842 5851 5858
5876 5877 5877 5879 5880 5880 5880 5880 5879 5880 5880 5880 5880 5880 5877 5876 5874 5872 5870 5867 5864 5862 5859 5857 5853 5847 5842 5841 5836 5837 5847 5849
5871 5874 5874 5873 5874 5874 5874 5874 5875 5874 5874 5875 5874 5874 5871 5869 5868 5865 5865 5863 5860 5857 5853 5850 5847 5843 5838 5837 5837 5838 5840 5841
5867 5869 5869 5869 5869 5869 5869 5869 5870 5870 5870 5869 5868 5868 5866 5863 5861 5859 5858 5858 5856 5854 5850 5846 5844 5843 5841 5840 5839 5837 5835 5834
5865 5866 5865 5866 5865 5865 5864 5865 5866 5865 5863 5863 5863 5861 5858 5857 5857 5856 5855 5853 5851 5850 5848 5846 5842 5841 5840 5837 5834 5832 5829 5828
5860 5861 5862 5862 5861 5862 5862 5861 5861 5860 5860 5858 5857 5854 5852 5851 5851 5851 5848 5846 5845 5843 5843 5840 5837 5832 5829 5828 5824 5820 5818 5814
5855 5854 5856 5858 5857 5856 5855 5857 5856 5855 5853 5851 5849 5847 5844 5842 5841 5842 5842 5840 5840 5837 5833 5831 5827 5824 5820 5816 5814 5812 5812 5811
5846 5845 5849 5852 5852 5850 5851 5853 5849 5848 5846 5844 5842 5841 5838 5835 5835 5834 5833 5831 5829 5824 5819 5816 5814 5813 5810 5809 5807 5806 5802 5800
5840 5838 5842 5846 5847 5847 5846 5844 5843 5841 5840 5838 5836 5833 5831 5830 5829 5827 5824 5822 5820 5818 5815 5812 5807 5804 5801 5798 5795 5793 5791 5788
5836 5838 5838 5840 5842 5841 5839 5837 5836 5835 5833 5831 5829 5827 5826 5826 5823 5819 5816 5813 5810 5807 5805 5803 5801 5799 5796 5792 5789 5783 5779 5777
5830 5832 5834 5835 5835 5834 5832 5831 5829 5827 5825 5824 5822 5820 5818 5816 5814 5811 5809 5806 5804 5801 5797 5794 5792 5791 5789 5786 5781 5777 5773 5769
5824 5826 5827 5827 5827 5826 5826 5824 5820 5818 5817 5816 5815 5813 5811 5808 5807 5805 5803 5801 5798 5795 5792 5789 5785 5781 5776 5772 5769 5765 5762 5759
5817 5818 5819 5819 5819 5818 5817 5815 5812 5811 5810 5808 5806 5803 5802 5800 5798 5796 5793 5790 5788 5785 5783 5780 5777 5773 5770 5767 5763 5760 5756 5752
5808 5809 5809 5810 5810 5809 5807 5806 5805 5803 5801 5799 5797 5796 5794 5791 5788 5786 5783 5781 5778 5775 5773 5770 5767 5763 5760 5756 5752 5748 5744 5740